Regional Weather Roundup
Issued by NWS Charleston, WV

Home | Current Version | Previous Version | Graphics & Text | Print | Product List | Glossary On
Versions: 1 2 3 4 5 6 7 8 9 10 11 12 13 14 15 16 17 18 19 20 21 22 23 24 25 26 27 28 29 30 31 32 33 34 35 36 37 38 39 40 41 42 43 44 45 46 47 48 49 50
000
ASUS41 KRLX 040410
RWRRLX
West Virginia Regional Weather Roundup
National Weather Service Charleston WV
1100 PM EST TUE MAR 03 2015

Note: "fair" indicates few or no clouds below 12,000 feet with no
significant weather and/or obstructions to visibility.

WVZ003-040500-
Northern Panhandle of West Virginia

CITY           SKY/WX    TMP DP  RH WIND       PRES   REMARKS
WHEELING       LGT RAIN  47  45  93 W13       29.77R
$$

WVZ009-040500-
Northwest West Virginia

CITY           SKY/WX    TMP DP  RH WIND       PRES   REMARKS
PARKERSBURG    RAIN      50  49  96 W10G17    29.84R FOG
$$

WVZ006-040500-
Western West Virginia

CITY           SKY/WX    TMP DP  RH WIND       PRES   REMARKS
HUNTINGTON     LGT RAIN  58  57  97 SW12      29.81S
$$

WVZ015-040500-
West Central West Virginia

CITY           SKY/WX    TMP DP  RH WIND       PRES   REMARKS
CHARLESTON     LGT RAIN  59  54  83 S12G21    29.82F
$$

WVZ022-031-040500-
North Central West Virginia

CITY           SKY/WX    TMP DP  RH WIND       PRES   REMARKS
CLARKSBURG     CLOUDY    58  53  84 SW15G26   29.76S
MORGANTOWN     LGT RAIN  53  49  86 W8        29.78R FOG
$$

WVZ025-035-042-045-040500-
Southern West Virginia

CITY           SKY/WX    TMP DP  RH WIND       PRES   REMARKS
BECKLEY        LGT RAIN  51  48  89 SW13      29.92F
LOGAN          CLOUDY    54  54 100 S6G13     29.85F FOG
BLUEFIELD      MOCLDY    54  50  86 SW12      29.94F
LEWISBURG      CLOUDY    36  34  92 CALM      29.94F FOG
$$

WVZ047-040500-
Northern Mountains of West Virginia

CITY           SKY/WX    TMP DP  RH WIND       PRES   REMARKS
ELKINS         CLOUDY    57  52  83 SW16G35   29.82F
$$

WVZ052-040500-
Eastern Panhandle of West Virginia

CITY           SKY/WX    TMP DP  RH WIND       PRES   REMARKS
MARTINSBURG    CLOUDY    39  28  64 S7        29.82F
PETERSBURG     CLOUDY    51  40  67 S18G29    29.76F
$$


USA.gov is the U.S. government's official web portal to all federal, state and local government web resources and services.